Time,TemperatureF,DewpointF,PressureIn,WindDirection,WindDirectionDegrees,WindSpeedMPH,WindSpeedGustMPH,Humidity,HourlyPrecipIn,Conditions,Clouds,dailyrainin,SoftwareType,DateUTC
2015-05-03 00:02:00,67.8,59.5,29.99,SW,232,0.0,2.0,75,0.00,,,0.00,meteohub,2015-05-03 05:02:00,
2015-05-03 00:07:00,67.6,59.4,29.99,SW,231,0.0,2.0,75,0.00,,,0.00,meteohub,2015-05-03 05:07:00,
2015-05-03 00:12:00,67.3,59.5,29.99,SW,236,0.0,1.0,76,0.00,,,0.00,meteohub,2015-05-03 05:12:00,
2015-05-03 00:17:00,67.3,59.5,29.99,SW,232,0.0,1.0,76,0.00,,,0.00,meteohub,2015-05-03 05:17:00,
2015-05-03 00:22:00,67.3,59.9,29.99,SW,221,0.0,1.0,77,0.00,,,0.00,meteohub,2015-05-03 05:22:00,
2015-05-03 00:27:00,67.3,59.9,29.98,WSW,239,1.0,2.0,77,0.00,,,0.00,meteohub,2015-05-03 05:27:00,
2015-05-03 00:32:00,67.3,59.9,29.98,WSW,249,0.0,2.0,77,0.00,,,0.00,meteohub,2015-05-03 05:32:00,
2015-05-03 00:37:00,67.3,59.9,29.98,SW,217,0.0,2.0,77,0.00,,,0.00,meteohub,2015-05-03 05:37:00,
2015-05-03 00:42:00,67.3,59.9,29.98,SW,231,0.0,2.0,77,0.00,,,0.00,meteohub,2015-05-03 05:42:00,
2015-05-03 00:47:00,67.3,59.9,29.98,WSW,249,2.0,2.0,77,0.00,,,0.00,meteohub,2015-05-03 05:47:00,
2015-05-03 00:52:00,67.3,59.9,29.98,SW,233,0.0,2.0,77,0.00,,,0.00,meteohub,2015-05-03 05:52:00,
2015-05-03 00:57:00,67.1,60.1,29.98,WSW,239,0.0,2.0,78,0.00,,,0.00,meteohub,2015-05-03 05:57:00,
2015-05-03 01:02:00,67.1,60.1,29.98,SW,226,0.0,2.0,78,0.00,,,0.00,meteohub,2015-05-03 06:02:00,
2015-05-03 01:07:00,66.9,59.9,29.98,WSW,238,0.0,2.0,78,0.00,,,0.00,meteohub,2015-05-03 06:07:00,
2015-05-03 01:12:00,66.9,59.9,29.98,WSW,252,1.0,2.0,78,0.00,,,0.00,meteohub,2015-05-03 06:12:00,
2015-05-03 01:17:00,66.9,60.3,29.98,SW,235,0.0,2.0,79,0.00,,,0.00,meteohub,2015-05-03 06:17:00,
2015-05-03 01:22:00,66.9,60.3,29.98,SW,225,0.0,3.0,79,0.00,,,0.00,meteohub,2015-05-03 06:22:00,
2015-05-03 01:27:00,66.7,60.1,29.98,West,259,0.0,3.0,79,0.00,,,0.00,meteohub,2015-05-03 06:27:00,
2015-05-03 01:33:00,66.7,60.1,29.98,WSW,252,0.0,3.0,79,0.00,,,0.00,meteohub,2015-05-03 06:33:00,
2015-05-03 01:38:00,66.7,60.1,29.98,WSW,249,1.0,2.0,79,0.00,,,0.00,meteohub,2015-05-03 06:38:00,
2015-05-03 01:43:00,66.9,60.3,29.98,WSW,252,0.0,3.0,79,0.00,,,0.00,meteohub,2015-05-03 06:43:00,
2015-05-03 01:48:00,66.9,60.3,29.98,WSW,241,0.0,3.0,79,0.00,,,0.00,meteohub,2015-05-03 06:48:00,
2015-05-03 01:53:00,66.9,60.3,29.98,SW,225,2.0,3.0,79,0.00,,,0.00,meteohub,2015-05-03 06:53:00,
2015-05-03 01:58:00,66.9,60.3,29.98,WSW,241,1.0,3.0,79,0.00,,,0.00,meteohub,2015-05-03 06:58:00,
2015-05-03 02:03:00,66.9,60.3,29.98,SW,217,1.0,3.0,79,0.00,,,0.00,meteohub,2015-05-03 07:03:00,
2015-05-03 02:08:00,66.7,60.1,29.98,SW,225,1.0,3.0,79,0.00,,,0.00,meteohub,2015-05-03 07:08:00,
2015-05-03 02:13:00,66.6,59.9,29.98,SW,233,0.0,3.0,79,0.00,,,0.00,meteohub,2015-05-03 07:13:00,
2015-05-03 02:18:00,66.4,60.1,29.98,SW,222,0.0,3.0,80,0.00,,,0.00,meteohub,2015-05-03 07:18:00,
2015-05-03 02:23:00,66.4,60.1,29.97,SW,224,0.0,2.0,80,0.00,,,0.00,meteohub,2015-05-03 07:23:00,
2015-05-03 02:28:00,66.0,60.1,29.97,SW,225,0.0,1.0,81,0.00,,,0.00,meteohub,2015-05-03 07:28:00,
2015-05-03 02:33:00,65.7,59.7,29.97,WSW,252,0.0,1.0,81,0.00,,,0.00,meteohub,2015-05-03 07:33:00,
2015-05-03 02:38:00,65.5,59.9,29.97,WNW,290,0.0,1.0,82,0.00,,,0.00,meteohub,2015-05-03 07:38:00,
2015-05-03 02:43:00,65.5,60.3,29.97,WSW,242,1.0,1.0,83,0.00,,,0.00,meteohub,2015-05-03 07:43:00,
2015-05-03 02:48:00,65.5,59.9,29.97,WSW,242,1.0,2.0,82,0.00,,,0.00,meteohub,2015-05-03 07:48:00,
2015-05-03 02:53:00,65.5,60.3,29.97,WSW,252,0.0,2.0,83,0.00,,,0.00,meteohub,2015-05-03 07:53:00,
2015-05-03 02:58:00,65.5,60.3,29.97,West,269,0.0,2.0,83,0.00,,,0.00,meteohub,2015-05-03 07:58:00,
2015-05-03 03:03:00,65.5,60.3,29.97,SW,217,1.0,1.0,83,0.00,,,0.00,meteohub,2015-05-03 08:03:00,
2015-05-03 03:08:00,65.1,59.9,29.96,SW,218,0.0,1.0,83,0.00,,,0.00,meteohub,2015-05-03 08:08:00,
2015-05-03 03:18:00,64.6,59.7,29.96,SW,218,0.0,1.0,84,0.00,,,0.00,meteohub,2015-05-03 08:18:00,
2015-05-03 03:23:00,64.2,59.4,29.96,SW,219,0.0,1.0,84,0.00,,,0.00,meteohub,2015-05-03 08:23:00,
2015-05-03 03:28:00,64.0,59.4,29.96,SW,218,0.0,1.0,85,0.00,,,0.00,meteohub,2015-05-03 08:28:00,
2015-05-03 03:33:00,63.7,59.0,29.97,SW,218,0.0,1.0,85,0.00,,,0.00,meteohub,2015-05-03 08:33:00,
2015-05-03 03:38:00,63.3,59.0,29.97,SW,218,0.0,1.0,86,0.00,,,0.00,meteohub,2015-05-03 08:38:00,
2015-05-03 03:43:00,63.0,58.6,29.97,SW,218,0.0,0.0,86,0.00,,,0.00,meteohub,2015-05-03 08:43:00,
2015-05-03 03:48:00,63.0,59.0,29.97,SSW,207,0.0,0.0,87,0.00,,,0.00,meteohub,2015-05-03 08:48:00,
2015-05-03 03:53:00,62.8,58.8,29.97,SSW,207,0.0,0.0,87,0.00,,,0.00,meteohub,2015-05-03 08:53:00,
2015-05-03 03:58:00,62.8,58.8,29.97,SSW,207,0.0,0.0,87,0.00,,,0.00,meteohub,2015-05-03 08:58:00,
2015-05-03 04:03:00,62.4,58.5,29.97,SSW,207,0.0,0.0,87,0.00,,,0.00,meteohub,2015-05-03 09:03:00,
2015-05-03 04:08:00,62.2,58.6,29.97,SSW,207,0.0,0.0,88,0.00,,,0.00,meteohub,2015-05-03 09:08:00,
2015-05-03 04:13:00,62.2,58.6,29.97,SSW,207,0.0,0.0,88,0.00,,,0.00,meteohub,2015-05-03 09:13:00,
2015-05-03 04:18:00,62.2,58.6,29.97,SSW,207,0.0,0.0,88,0.00,,,0.00,meteohub,2015-05-03 09:18:00,
2015-05-03 04:23:00,62.1,58.5,29.97,SE,136,0.0,0.0,88,0.00,,,0.00,meteohub,2015-05-03 09:23:00,
2015-05-03 04:28:00,62.1,58.8,29.97,SE,136,0.0,1.0,89,0.00,,,0.00,meteohub,2015-05-03 09:28:00,
2015-05-03 04:33:00,61.9,58.3,29.97,SE,137,0.0,1.0,88,0.00,,,0.00,meteohub,2015-05-03 09:33:00,
2015-05-03 04:38:00,61.7,58.5,29.97,SE,137,0.0,1.0,89,0.00,,,0.00,meteohub,2015-05-03 09:38:00,
2015-05-03 04:43:00,61.3,58.1,29.98,SE,137,0.0,0.0,89,0.00,,,0.00,meteohub,2015-05-03 09:43:00,
2015-05-03 04:48:00,61.3,58.1,29.97,SE,136,0.0,0.0,89,0.00,,,0.00,meteohub,2015-05-03 09:48:00,
2015-05-03 04:53:00,61.2,58.3,29.97,SE,137,0.0,0.0,90,0.00,,,0.00,meteohub,2015-05-03 09:53:00,
2015-05-03 04:58:00,61.2,58.3,29.97,SE,136,0.0,0.0,90,0.00,,,0.00,meteohub,2015-05-03 09:58:00,
2015-05-03 05:03:00,61.2,58.5,29.97,SE,137,0.0,0.0,91,0.00,,,0.00,meteohub,2015-05-03 10:03:00,
2015-05-03 05:08:00,61.2,58.3,29.97,SE,137,0.0,1.0,90,0.00,,,0.00,meteohub,2015-05-03 10:08:00,
2015-05-03 05:13:00,61.3,58.5,29.97,SE,137,0.0,1.0,90,0.00,,,0.00,meteohub,2015-05-03 10:13:00,
2015-05-03 05:18:00,61.2,58.3,29.97,SE,136,0.0,1.0,90,0.00,,,0.00,meteohub,2015-05-03 10:18:00,
2015-05-03 05:23:00,61.2,58.3,29.97,SE,137,0.0,0.0,90,0.00,,,0.00,meteohub,2015-05-03 10:23:00,
2015-05-03 05:28:00,61.0,58.1,29.97,SE,138,0.0,0.0,90,0.00,,,0.00,meteohub,2015-05-03 10:28:00,
2015-05-03 05:33:00,61.0,58.3,29.97,SE,139,0.0,0.0,91,0.00,,,0.00,meteohub,2015-05-03 10:33:00,
2015-05-03 05:38:00,61.0,58.3,29.97,SE,139,0.0,0.0,91,0.00,,,0.00,meteohub,2015-05-03 10:38:00,
2015-05-03 05:43:00,61.2,58.5,29.96,SE,138,0.0,0.0,91,0.00,,,0.00,meteohub,2015-05-03 10:43:00,
2015-05-03 05:48:00,61.2,58.5,29.96,SE,139,0.0,1.0,91,0.00,,,0.00,meteohub,2015-05-03 10:48:00,
2015-05-03 05:53:00,61.2,58.5,29.97,SE,138,0.0,1.0,91,0.00,,,0.00,meteohub,2015-05-03 10:53:00,
2015-05-03 05:58:00,61.3,58.5,29.97,SE,139,0.0,1.0,90,0.00,,,0.00,meteohub,2015-05-03 10:58:00,
2015-05-03 06:03:00,61.3,58.6,29.97,SE,139,0.0,1.0,91,0.00,,,0.00,meteohub,2015-05-03 11:03:00,
2015-05-03 06:08:00,61.3,58.5,29.97,SE,126,0.0,1.0,90,0.00,,,0.00,meteohub,2015-05-03 11:08:00,
2015-05-03 06:13:00,61.3,58.5,29.97,SE,126,0.0,1.0,90,0.00,,,0.00,meteohub,2015-05-03 11:13:00,
2015-05-03 06:18:00,61.2,58.3,29.97,SE,124,0.0,1.0,90,0.00,,,0.00,meteohub,2015-05-03 11:18:00,
2015-05-03 06:23:00,61.2,58.3,29.97,SE,124,0.0,1.0,90,0.00,,,0.00,meteohub,2015-05-03 11:23:00,
2015-05-03 06:28:00,61.2,58.5,29.97,ESE,122,0.0,1.0,91,0.00,,,0.00,meteohub,2015-05-03 11:28:00,
2015-05-03 06:33:00,61.2,58.5,29.97,ESE,121,0.0,1.0,91,0.00,,,0.00,meteohub,2015-05-03 11:33:00,
2015-05-03 06:38:00,61.0,58.1,29.97,ESE,121,0.0,1.0,90,0.00,,,0.00,meteohub,2015-05-03 11:38:00,
2015-05-03 06:43:00,60.8,58.1,29.97,ESE,122,0.0,1.0,91,0.00,,,0.00,meteohub,2015-05-03 11:43:00,
2015-05-03 06:48:00,61.0,58.3,29.97,ESE,123,0.0,1.0,91,0.00,,,0.00,meteohub,2015-05-03 11:48:00,
2015-05-03 06:53:00,61.2,58.5,29.97,ESE,123,0.0,1.0,91,0.00,,,0.00,meteohub,2015-05-03 11:53:00,
2015-05-03 06:58:00,61.3,58.6,29.97,ESE,123,0.0,1.0,91,0.00,,,0.00,meteohub,2015-05-03 11:58:00,
2015-05-03 07:03:00,61.5,58.8,29.98,ESE,123,1.0,1.0,91,0.00,,,0.00,meteohub,2015-05-03 12:03:00,
2015-05-03 07:08:00,61.9,59.0,29.98,SE,130,0.0,0.0,90,0.00,,,0.00,meteohub,2015-05-03 12:08:00,
2015-05-03 07:13:00,62.1,59.2,29.98,SE,127,0.0,1.0,90,0.00,,,0.00,meteohub,2015-05-03 12:13:00,
2015-05-03 07:18:00,62.2,59.0,29.99,ESE,119,0.0,1.0,89,0.00,,,0.00,meteohub,2015-05-03 12:18:00,
2015-05-03 07:23:00,62.4,59.2,29.99,ESE,117,1.0,1.0,89,0.00,,,0.00,meteohub,2015-05-03 12:23:00,
2015-05-03 07:28:00,62.8,59.5,29.99,ESE,118,0.0,1.0,89,0.00,,,0.00,meteohub,2015-05-03 12:28:00,
2015-05-03 07:33:00,63.1,59.9,29.99,ESE,117,0.0,1.0,89,0.00,,,0.00,meteohub,2015-05-03 12:33:00,
2015-05-03 07:38:00,63.9,60.3,29.99,ESE,120,0.0,1.0,88,0.00,,,0.00,meteohub,2015-05-03 12:38:00,
2015-05-03 07:43:00,64.2,60.3,29.99,South,173,0.0,1.0,87,0.00,,,0.00,meteohub,2015-05-03 12:43:00,
2015-05-03 07:48:00,64.9,60.6,29.99,South,170,0.0,1.0,86,0.00,,,0.00,meteohub,2015-05-03 12:48:00,
2015-05-03 07:53:00,65.5,60.8,29.99,SE,141,0.0,2.0,85,0.00,,,0.00,meteohub,2015-05-03 12:53:00,
2015-05-03 07:58:00,66.2,61.2,30.00,South,188,0.0,2.0,84,0.00,,,0.00,meteohub,2015-05-03 12:58:00,
2015-05-03 08:03:00,66.6,61.2,30.00,SE,141,1.0,1.0,83,0.00,,,0.00,meteohub,2015-05-03 13:03:00,
2015-05-03 08:08:00,66.7,61.0,30.00,South,169,0.0,1.0,82,0.00,,,0.00,meteohub,2015-05-03 13:08:00,
2015-05-03 08:13:00,66.7,61.0,30.00,SSE,166,0.0,1.0,82,0.00,,,0.00,meteohub,2015-05-03 13:13:00,
2015-05-03 08:18:00,66.9,61.2,30.00,SSE,167,0.0,1.0,82,0.00,,,0.00,meteohub,2015-05-03 13:18:00,
2015-05-03 08:23:00,67.3,61.9,30.01,South,170,0.0,1.0,83,0.00,,,0.00,meteohub,2015-05-03 13:23:00,
2015-05-03 08:28:00,67.8,62.4,30.01,SSE,151,0.0,1.0,83,0.00,,,0.00,meteohub,2015-05-03 13:28:00,
2015-05-03 08:33:00,68.7,63.0,30.01,SSE,148,0.0,1.0,82,0.00,,,0.00,meteohub,2015-05-03 13:33:00,
2015-05-03 08:38:00,69.4,63.0,30.01,SE,145,0.0,1.0,80,0.00,,,0.00,meteohub,2015-05-03 13:38:00,
2015-05-03 08:44:00,70.3,63.9,30.01,West,281,1.0,1.0,80,0.00,,,0.00,meteohub,2015-05-03 13:44:00,
2015-05-03 08:49:00,70.9,63.3,30.01,SSW,197,0.0,1.0,77,0.00,,,0.00,meteohub,2015-05-03 13:49:00,
2015-05-03 08:54:00,71.8,64.2,30.01,West,267,0.0,3.0,77,0.00,,,0.00,meteohub,2015-05-03 13:54:00,
2015-05-03 08:59:00,72.5,63.7,30.01,West,260,1.0,3.0,74,0.00,,,0.00,meteohub,2015-05-03 13:59:00,
2015-05-03 09:04:00,73.0,63.5,30.01,West,273,4.0,5.0,72,0.00,,,0.00,meteohub,2015-05-03 14:04:00,
2015-05-03 09:09:00,73.6,64.0,30.01,WNW,297,1.0,7.0,72,0.00,,,0.00,meteohub,2015-05-03 14:09:00,
2015-05-03 09:14:00,73.9,63.5,30.02,WSW,249,2.0,7.0,70,0.00,,,0.00,meteohub,2015-05-03 14:14:00,
2015-05-03 09:19:00,74.5,64.4,30.02,WNW,296,1.0,6.0,71,0.00,,,0.00,meteohub,2015-05-03 14:19:00,
2015-05-03 09:24:00,74.7,64.2,30.02,NW,318,1.0,5.0,70,0.00,,,0.00,meteohub,2015-05-03 14:24:00,
2015-05-03 09:29:00,75.0,63.7,30.02,WSW,256,5.0,6.0,68,0.00,,,0.00,meteohub,2015-05-03 14:29:00,
2015-05-03 09:34:00,75.4,64.6,30.02,West,270,1.0,7.0,69,0.00,,,0.00,meteohub,2015-05-03 14:34:00,
2015-05-03 09:39:00,75.6,64.2,30.02,WSW,246,4.0,7.0,68,0.00,,,0.00,meteohub,2015-05-03 14:39:00,
2015-05-03 09:44:00,75.7,64.0,30.02,WNW,294,4.0,7.0,67,0.00,,,0.00,meteohub,2015-05-03 14:44:00,
2015-05-03 09:49:00,75.7,64.0,30.02,NW,316,4.0,8.0,67,0.00,,,0.00,meteohub,2015-05-03 14:49:00,
2015-05-03 09:54:00,75.6,63.0,30.02,WNW,295,5.0,8.0,65,0.00,,,0.00,meteohub,2015-05-03 14:54:00,
2015-05-03 09:59:00,75.6,63.0,30.02,WNW,293,3.0,10.0,65,0.00,,,0.00,meteohub,2015-05-03 14:59:00,
2015-05-03 10:04:00,75.6,63.0,30.02,SSW,212,2.0,10.0,65,0.00,,,0.00,meteohub,2015-05-03 15:04:00,
2015-05-03 10:09:00,75.7,64.0,30.02,SSE,149,2.0,10.0,67,0.00,,,0.00,meteohub,2015-05-03 15:09:00,
2015-05-03 10:14:00,76.3,63.7,30.02,SW,225,2.0,10.0,65,0.00,,,0.00,meteohub,2015-05-03 15:14:00,
2015-05-03 10:19:00,76.5,63.9,30.02,WSW,250,3.0,10.0,65,0.00,,,0.00,meteohub,2015-05-03 15:19:00,
2015-05-03 10:24:00,76.3,63.1,30.02,West,281,6.0,10.0,64,0.00,,,0.00,meteohub,2015-05-03 15:24:00,
2015-05-03 10:29:00,75.9,63.3,30.02,WSW,243,2.0,10.0,65,0.00,,,0.00,meteohub,2015-05-03 15:29:00,
2015-05-03 10:34:00,76.3,62.8,30.02,WSW,239,3.0,8.0,63,0.00,,,0.00,meteohub,2015-05-03 15:34:00,
2015-05-03 10:39:00,76.5,63.9,30.02,WSW,256,2.0,10.0,65,0.00,,,0.00,meteohub,2015-05-03 15:39:00,
2015-05-03 10:44:00,77.4,64.2,30.02,SSW,212,2.0,10.0,64,0.00,,,0.00,meteohub,2015-05-03 15:44:00,
2015-05-03 10:49:00,78.4,63.9,30.02,West,281,4.0,10.0,61,0.00,,,0.00,meteohub,2015-05-03 15:49:00,
2015-05-03 10:54:00,77.7,62.2,30.02,WNW,285,8.0,8.0,59,0.00,,,0.00,meteohub,2015-05-03 15:54:00,
2015-05-03 10:59:00,77.2,62.6,30.02,WSW,239,3.0,12.0,61,0.00,,,0.00,meteohub,2015-05-03 15:59:00,
2015-05-03 11:04:00,77.7,62.2,30.02,WNW,296,5.0,12.0,59,0.00,,,0.00,meteohub,2015-05-03 16:04:00,
2015-05-03 11:09:00,78.3,62.2,30.02,SW,233,4.0,12.0,58,0.00,,,0.00,meteohub,2015-05-03 16:09:00,
2015-05-03 11:14:00,79.0,63.5,30.02,SW,236,4.0,10.0,59,0.00,,,0.00,meteohub,2015-05-03 16:14:00,
2015-05-03 11:19:00,79.5,63.0,30.02,SW,226,2.0,10.0,57,0.00,,,0.00,meteohub,2015-05-03 16:19:00,
2015-05-03 11:24:00,80.2,61.5,30.02,NW,305,6.0,10.0,53,0.00,,,0.00,meteohub,2015-05-03 16:24:00,
2015-05-03 11:29:00,79.7,61.0,30.02,West,267,4.0,10.0,53,0.00,,,0.00,meteohub,2015-05-03 16:29:00,
2015-05-03 11:34:00,79.5,60.4,30.03,West,262,2.0,9.0,52,0.00,,,0.00,meteohub,2015-05-03 16:34:00,
2015-05-03 11:39:00,79.2,61.2,30.02,West,271,3.0,11.0,54,0.00,,,0.00,meteohub,2015-05-03 16:39:00,
2015-05-03 11:49:00,80.1,61.9,30.02,WSW,238,1.0,9.0,54,0.00,,,0.00,meteohub,2015-05-03 16:49:00,
2015-05-03 11:54:00,81.3,62.6,30.02,SSE,167,2.0,9.0,53,0.00,,,0.00,meteohub,2015-05-03 16:54:00,
2015-05-03 11:59:00,81.5,62.8,30.02,WSW,238,3.0,8.0,53,0.00,,,0.00,meteohub,2015-05-03 16:59:00,
2015-05-03 12:04:00,81.1,61.9,30.02,SW,222,1.0,8.0,52,0.00,,,0.00,meteohub,2015-05-03 17:04:00,
2015-05-03 12:09:00,82.6,62.1,30.02,South,187,1.0,8.0,50,0.00,,,0.00,meteohub,2015-05-03 17:09:00,
2015-05-03 12:14:00,83.3,61.5,30.02,WSW,243,4.0,8.0,48,0.00,,,0.00,meteohub,2015-05-03 17:14:00,
2015-05-03 12:19:00,82.8,57.9,30.02,WNW,283,4.0,7.0,43,0.00,,,0.00,meteohub,2015-05-03 17:19:00,
2015-05-03 12:24:00,82.2,59.9,30.02,SW,232,6.0,11.0,47,0.00,,,0.00,meteohub,2015-05-03 17:24:00,
2015-05-03 12:29:00,82.6,60.3,30.02,WSW,245,5.0,11.0,47,0.00,,,0.00,meteohub,2015-05-03 17:29:00,
2015-05-03 12:34:00,82.0,60.4,30.02,SSE,159,2.0,10.0,48,0.00,,,0.00,meteohub,2015-05-03 17:34:00,
2015-05-03 12:39:00,82.8,61.0,30.01,West,259,7.0,10.0,48,0.00,,,0.00,meteohub,2015-05-03 17:39:00,
2015-05-03 12:44:00,83.5,61.2,30.01,South,170,2.0,10.0,47,0.00,,,0.00,meteohub,2015-05-03 17:44:00,
2015-05-03 12:49:00,84.2,59.9,30.01,SSW,208,1.0,10.0,44,0.00,,,0.00,meteohub,2015-05-03 17:49:00,
2015-05-03 12:54:00,83.5,59.4,30.01,WSW,240,1.0,10.0,44,0.00,,,0.00,meteohub,2015-05-03 17:54:00,
2015-05-03 12:59:00,83.5,60.4,30.01,NW,305,3.0,9.0,46,0.00,,,0.00,meteohub,2015-05-03 17:59:00,
2015-05-03 13:04:00,83.3,61.5,30.01,WNW,290,6.0,9.0,48,0.00,,,0.00,meteohub,2015-05-03 18:04:00,
2015-05-03 13:09:00,82.4,60.1,30.01,WSW,255,3.0,9.0,47,0.00,,,0.00,meteohub,2015-05-03 18:09:00,
2015-05-03 13:14:00,83.7,60.6,30.00,SSE,155,2.0,13.0,46,0.00,,,0.00,meteohub,2015-05-03 18:14:00,
2015-05-03 13:19:00,84.2,61.2,30.00,WNW,293,2.0,13.0,46,0.00,,,0.00,meteohub,2015-05-03 18:19:00,
2015-05-03 13:24:00,85.1,60.8,30.00,SW,214,3.0,11.0,44,0.00,,,0.00,meteohub,2015-05-03 18:24:00,
2015-05-03 13:29:00,84.6,60.3,30.00,SSW,204,4.0,10.0,44,0.00,,,0.00,meteohub,2015-05-03 18:29:00,
2015-05-03 13:34:00,84.0,60.4,30.00,WSW,255,1.0,7.0,45,0.00,,,0.00,meteohub,2015-05-03 18:34:00,
2015-05-03 13:39:00,83.1,60.8,30.00,SW,236,5.0,8.0,47,0.00,,,0.00,meteohub,2015-05-03 18:39:00,
2015-05-03 13:44:00,82.4,60.8,30.00,SE,145,1.0,13.0,48,0.00,,,0.00,meteohub,2015-05-03 18:44:00,
2015-05-03 13:49:00,82.4,60.1,29.99,WSW,240,5.0,13.0,47,0.00,,,0.00,meteohub,2015-05-03 18:49:00,
2015-05-03 13:54:00,82.2,59.9,29.99,WSW,249,6.0,13.0,47,0.00,,,0.00,meteohub,2015-05-03 18:54:00,
2015-05-03 13:59:00,82.4,61.3,29.99,SW,224,4.0,11.0,49,0.00,,,0.00,meteohub,2015-05-03 18:59:00,
2015-05-03 14:04:00,82.8,61.0,29.99,SW,219,3.0,11.0,48,0.00,,,0.00,meteohub,2015-05-03 19:04:00,
2015-05-03 14:09:00,82.8,61.7,29.99,WSW,245,7.0,11.0,49,0.00,,,0.00,meteohub,2015-05-03 19:09:00,
2015-05-03 14:14:00,83.5,62.2,29.99,SE,138,3.0,11.0,49,0.00,,,0.00,meteohub,2015-05-03 19:14:00,
2015-05-03 14:19:00,83.8,61.5,29.99,WSW,243,5.0,11.0,47,0.00,,,0.00,meteohub,2015-05-03 19:19:00,
2015-05-03 14:25:00,83.1,61.3,29.99,SSW,201,3.0,10.0,48,0.00,,,0.00,meteohub,2015-05-03 19:25:00,
2015-05-03 14:30:00,82.8,62.2,29.99,West,281,6.0,10.0,50,0.00,,,0.00,meteohub,2015-05-03 19:30:00,
2015-05-03 14:35:00,82.6,63.7,29.99,SSW,203,6.0,8.0,53,0.00,,,0.00,meteohub,2015-05-03 19:35:00,
2015-05-03 14:40:00,82.0,64.2,29.99,West,264,5.0,15.0,55,0.00,,,0.00,meteohub,2015-05-03 19:40:00,
2015-05-03 14:45:00,82.2,64.4,29.98,WSW,240,2.0,15.0,55,0.00,,,0.00,meteohub,2015-05-03 19:45:00,
2015-05-03 14:50:00,82.6,63.7,29.98,WSW,255,5.0,15.0,53,0.00,,,0.00,meteohub,2015-05-03 19:50:00,
2015-05-03 14:55:00,83.1,64.2,29.98,WSW,250,3.0,8.0,53,0.00,,,0.00,meteohub,2015-05-03 19:55:00,
2015-05-03 15:00:00,83.5,65.1,29.98,SW,233,4.0,14.0,54,0.00,,,0.00,meteohub,2015-05-03 20:00:00,
2015-05-03 15:05:00,83.8,64.9,29.98,SSW,206,6.0,14.0,53,0.00,,,0.00,meteohub,2015-05-03 20:05:00,
2015-05-03 15:10:00,83.1,64.2,29.98,WSW,238,4.0,14.0,53,0.00,,,0.00,meteohub,2015-05-03 20:10:00,
2015-05-03 15:15:00,82.0,64.2,29.97,SSW,195,4.0,13.0,55,0.00,,,0.00,meteohub,2015-05-03 20:15:00,
2015-05-03 15:20:00,81.7,64.9,29.98,SE,141,2.0,15.0,57,0.00,,,0.00,meteohub,2015-05-03 20:20:00,
2015-05-03 15:25:00,81.5,64.8,29.97,West,278,3.0,15.0,57,0.00,,,0.00,meteohub,2015-05-03 20:25:00,
2015-05-03 15:30:00,81.3,64.6,29.97,WNW,300,3.0,11.0,57,0.00,,,0.00,meteohub,2015-05-03 20:30:00,
2015-05-03 15:35:00,81.1,64.9,29.97,SE,142,4.0,12.0,58,0.00,,,0.00,meteohub,2015-05-03 20:35:00,
2015-05-03 15:40:00,81.3,65.1,29.97,South,181,9.0,12.0,58,0.00,,,0.00,meteohub,2015-05-03 20:40:00,
2015-05-03 15:45:00,81.7,64.9,29.97,NNE,13,5.0,12.0,57,0.00,,,0.00,meteohub,2015-05-03 20:45:00,
2015-05-03 15:50:00,81.9,65.1,29.97,SSW,193,5.0,11.0,57,0.00,,,0.00,meteohub,2015-05-03 20:50:00,
2015-05-03 15:55:00,81.3,64.6,29.97,WSW,255,5.0,11.0,57,0.00,,,0.00,meteohub,2015-05-03 20:55:00,
2015-05-03 16:00:00,81.1,64.9,29.96,WSW,256,5.0,11.0,58,0.00,,,0.00,meteohub,2015-05-03 21:00:00,
2015-05-03 16:05:00,81.0,64.8,29.96,South,187,3.0,10.0,58,0.00,,,0.00,meteohub,2015-05-03 21:05:00,
2015-05-03 16:10:00,80.8,64.6,29.96,SE,133,1.0,10.0,58,0.00,,,0.00,meteohub,2015-05-03 21:10:00,
2015-05-03 16:15:00,80.4,64.8,29.96,SSW,201,5.0,12.0,59,0.00,,,0.00,meteohub,2015-05-03 21:15:00,
2015-05-03 16:20:00,80.1,64.4,29.96,SW,214,3.0,12.0,59,0.00,,,0.00,meteohub,2015-05-03 21:20:00,
2015-05-03 16:25:00,80.1,64.4,29.96,WSW,239,4.0,12.0,59,0.00,,,0.00,meteohub,2015-05-03 21:25:00,
2015-05-03 16:30:00,79.7,64.6,29.96,SSW,204,3.0,12.0,60,0.00,,,0.00,meteohub,2015-05-03 21:30:00,
2015-05-03 16:35:00,79.9,64.2,29.96,SW,224,5.0,12.0,59,0.00,,,0.00,meteohub,2015-05-03 21:35:00,
2015-05-03 16:40:00,80.1,64.9,29.96,SW,218,4.0,12.0,60,0.00,,,0.00,meteohub,2015-05-03 21:40:00,
2015-05-03 16:45:00,79.9,64.2,29.96,SE,139,1.0,12.0,59,0.00,,,0.00,meteohub,2015-05-03 21:45:00,
2015-05-03 16:50:00,79.9,64.8,29.96,SW,229,8.0,11.0,60,0.00,,,0.00,meteohub,2015-05-03 21:50:00,
2015-05-03 17:00:00,79.5,64.4,29.96,SE,125,2.0,11.0,60,0.00,,,0.00,meteohub,2015-05-03 22:00:00,
2015-05-03 17:05:00,79.3,64.2,29.96,SSW,210,2.0,14.0,60,0.00,,,0.00,meteohub,2015-05-03 22:05:00,
2015-05-03 17:10:00,79.3,64.8,29.96,SSW,200,1.0,14.0,61,0.00,,,0.00,meteohub,2015-05-03 22:10:00,
2015-05-03 17:15:00,79.5,64.9,29.95,SE,135,5.0,12.0,61,0.00,,,0.00,meteohub,2015-05-03 22:15:00,
2015-05-03 17:20:00,79.5,64.9,29.95,SW,217,5.0,10.0,61,0.00,,,0.00,meteohub,2015-05-03 22:20:00,
2015-05-03 17:25:00,79.3,64.8,29.95,SSW,205,3.0,10.0,61,0.00,,,0.00,meteohub,2015-05-03 22:25:00,
2015-05-03 17:30:00,79.5,64.4,29.95,SSE,159,1.0,14.0,60,0.00,,,0.00,meteohub,2015-05-03 22:30:00,
2015-05-03 17:35:00,79.9,64.8,29.95,SE,134,3.0,16.0,60,0.00,,,0.00,meteohub,2015-05-03 22:35:00,
2015-05-03 17:40:00,80.1,64.4,29.95,South,173,5.0,16.0,59,0.00,,,0.00,meteohub,2015-05-03 22:40:00,
2015-05-03 17:45:00,79.9,64.8,29.95,WSW,243,5.0,16.0,60,0.00,,,0.00,meteohub,2015-05-03 22:45:00,
2015-05-03 17:50:00,79.7,64.6,29.96,WSW,243,8.0,14.0,60,0.00,,,0.00,meteohub,2015-05-03 22:50:00,
2015-05-03 17:55:00,79.7,64.6,29.95,SSW,195,6.0,14.0,60,0.00,,,0.00,meteohub,2015-05-03 22:55:00,
2015-05-03 18:00:00,80.1,64.4,29.96,SW,231,4.0,10.0,59,0.00,,,0.00,meteohub,2015-05-03 23:00:00,
2015-05-03 18:05:00,80.1,64.9,29.96,WSW,243,4.0,10.0,60,0.00,,,0.00,meteohub,2015-05-03 23:05:00,
2015-05-03 18:10:00,80.1,64.9,29.96,SSE,159,4.0,10.0,60,0.00,,,0.00,meteohub,2015-05-03 23:10:00,
2015-05-03 18:15:00,80.2,64.6,29.96,SSW,208,2.0,10.0,59,0.00,,,0.00,meteohub,2015-05-03 23:15:00,